Theta_e
304 304 304 304 304 304 304 304 304 304 304 304 304 304 305 305 307 315 318 317 316 316 319 321 319 319 323 321 319 321 322 324 320 319 316 316 319 322 322 321 322 321 320 321 320 325 329 323 325 329 322 323 323 323
303 303 303 303 303 303 303 303 303 304 304 304 304 304 305 305 306 308 315 317 315 315 315 320 320 319 319 319 319 322 323 323 323 322 320 318 322 317 318 321 318 320 319 322 322 323 321 322 323 323 323 322 322 322
303 303 303 303 303 303 303 304 304 304 304 304 304 304 305 305 305 308 311 313 315 320 318 317 318 318 318 317 319 321 324 325 324 323 320 314 318 313 318 319 321 317 318 321 320 321 320 321 321 321 321 321 320 320
303 303 303 303 303 304 304 305 308 309 308 305 304 304 305 305 306 309 315 317 316 316 318 321 319 318 318 318 319 320 323 322 321 321 318 313 316 316 315 316 316 317 318 318 318 320 320 320 320 320 320 319 318 318
304 305 304 303 303 304 305 306 309 309 310 307 304 305 306 306 307 311 316 317 317 314 316 319 320 321 320 317 317 318 320 321 321 320 315 315 316 316 313 312 317 317 315 318 319 320 320 320 319 319 318 318 318 318
304 305 305 303 303 304 305 306 307 309 309 308 305 306 306 307 308 316 319 319 316 313 314 315 322 319 319 318 319 319 321 320 321 320 318 319 319 317 313 315 319 320 320 321 320 321 320 320 318 318 317 318 319 318
304 304 305 303 303 304 305 305 305 309 308 307 307 307 308 309 309 314 318 316 313 312 318 317 317 321 319 319 320 321 321 321 321 320 319 318 318 318 312 315 320 321 321 320 320 320 319 318 318 317 316 317 317 317
305 305 304 303 304 305 305 305 308 310 310 308 310 310 311 310 311 315 316 316 314 312 316 314 315 318 320 320 320 321 321 321 320 318 318 316 317 315 315 314 321 320 320 320 319 317 315 315 316 316 317 317 316 315
306 305 304 304 304 305 305 306 307 307 310 310 311 312 314 314 316 317 316 315 315 312 317 316 316 317 319 319 320 321 320 317 318 316 315 317 313 316 315 319 321 321 320 318 317 316 316 316 316 316 315 315 314 313
307 304 303 303 304 305 305 305 306 307 308 312 312 315 317 316 315 315 315 315 316 316 315 314 317 316 318 317 319 319 318 315 317 316 318 316 316 319 319 320 321 320 317 317 317 316 315 315 316 316 315 315 315 315
306 304 303 303 304 305 305 305 305 306 310 311 312 314 314 312 315 317 318 316 316 315 317 317 317 316 320 317 319 319 317 315 317 315 316 316 316 316 320 321 318 317 317 316 316 316 315 315 316 316 315 315 314 315
305 304 304 303 304 304 304 305 306 306 309 310 310 311 314 316 317 316 315 315 314 316 317 316 317 318 321 319 318 318 317 315 319 316 316 317 312 316 319 317 317 317 317 318 317 316 316 316 316 315 314 315 315 316
305 304 303 303 303 305 306 306 306 307 309 311 313 314 315 315 309 316 317 315 317 317 319 319 318 321 320 319 318 316 319 318 316 317 318 318 319 317 318 319 319 319 319 318 317 317 316 315 315 314 315 315 316 316
305 304 305 305 305 306 307 306 307 310 310 312 314 309 312 314 313 315 315 316 317 319 320 320 320 319 319 318 317 319 316 316 319 317 318 317 320 320 320 320 320 319 318 318 317 317 315 315 314 314 315 315 316 315
304 305 305 306 306 306 306 306 307 310 310 311 313 311 312 314 315 316 316 317 319 318 319 320 319 318 316 317 315 316 320 319 317 316 314 319 319 318 318 315 315 317 318 317 316 315 315 314 314 314 316 316 315 313
304 306 306 305 306 305 306 305 307 310 311 310 312 313 314 314 315 316 316 317 318 318 318 318 316 316 318 315 319 320 320 318 316 315 317 316 316 316 316 315 318 318 317 317 316 315 315 315 316 315 316 316 314 312
304 305 306 305 304 305 306 307 309 311 312 313 314 314 314 314 315 315 316 317 319 317 318 318 319 318 314 316 318 316 317 315 317 317 317 316 316 317 318 318 318 317 317 316 315 315 315 314 314 314 314 315 314 312
305 305 304 303 305 306 308 309 309 312 314 314 314 314 314 314 315 315 316 317 319 319 320 319 317 316 317 317 315 313 318 318 318 318 317 318 318 318 318 317 315 315 314 315 315 314 313 314 314 314 314 314 315 314
305 304 304 306 306 306 307 310 311 311 312 313 313 313 314 315 315 316 319 319 317 318 318 316 316 315 314 315 317 318 318 318 317 318 318 318 317 316 316 314 314 315 314 315 314 313 313 314 314 315 315 314 313 314
304 306 306 306 306 305 307 309 311 313 313 314 313 314 315 315 316 317 319 320 320 319 317 314 314 316 316 316 318 318 318 317 317 316 317 317 316 314 314 315 315 315 315 315 315 314 314 314 314 314 314 315 315 313
305 306 306 306 307 307 306 308 310 312 312 314 314 315 314 315 316 317 319 319 319 318 316 317 317 317 319 319 318 318 317 317 317 316 316 316 315 314 315 315 314 314 314 315 314 314 314 314 314 313 313 313 314 314
305 306 306 307 306 308 308 309 309 310 310 313 313 314 315 316 317 318 319 318 317 318 318 318 319 319 319 317 317 315 315 315 315 316 314 314 314 315 315 314 314 314 314 314 314 314 314 314 313 313 313 312 312 312
305 305 306 306 307 308 308 309 311 313 313 315 318 318 318 319 320 320 318 319 319 319 317 318 319 318 318 316 312 313 314 314 314 315 315 315 314 314 314 314 315 314 314 314 314 314 312 313 313 313 312 311 311 311
305 305 307 308 308 308 309 311 313 314 317 317 316 319 319 320 320 319 317 319 321 318 315 316 316 317 315 313 314 315 315 316 315 313 313 313 313 313 314 315 314 314 314 314 313 313 313 313 314 313 313 311 310 310
306 307 306 305 309 311 312 315 316 316 317 317 318 319 318 319 319 319 319 320 320 318 314 313 313 315 314 314 316 316 316 315 315 315 314 314 314 314 314 314 314 313 314 314 312 312 312 312 313 313 312 310 310 310
306 307 307 309 311 311 314 318 318 317 316 317 318 319 319 317 319 319 316 321 320 318 315 314 315 315 315 316 316 316 315 314 314 314 315 315 314 314 314 314 314 314 312 311 311 311 311 311 311 310 310 310 310 311
306 308 308 308 310 312 315 315 316 317 319 320 318 320 319 320 319 317 320 320 320 319 316 313 315 315 315 316 315 314 315 315 315 314 315 316 316 314 314 311 309 312 311 310 310 310 310 310 310 310 310 310 310 310
307 308 308 310 312 313 314 315 315 315 316 319 318 319 321 322 319 320 321 319 318 319 316 315 315 315 315 315 315 315 314 315 314 315 315 315 316 314 312 311 311 310 310 310 310 310 309 309 310 310 310 310 311 311
307 309 310 310 311 313 314 314 315 316 318 318 316 318 321 318 319 320 320 318 319 317 316 315 315 315 315 315 315 315 314 314 314 315 316 316 316 316 315 314 313 312 312 312 312 312 312 311 311 311 311 311 312 312
308 307 310 312 312 313 315 316 317 316 315 316 318 318 318 318 318 319 319 321 320 319 318 315 315 315 315 315 315 315 315 315 315 315 315 316 315 314 315 314 314 313 312 312 312 312 312 312 312 312 312 312 312 312
310 310 309 310 312 313 314 315 315 315 315 315 316 317 317 318 318 317 317 318 320 319 320 317 315 315 315 315 315 315 315 315 315 315 315 315 315 314 313 313 313 312 312 311 312 312 312 312 312 313 312 312 312 312
310 311 312 312 313 314 314 314 315 315 316 316 316 316 317 317 317 317 317 317 318 319 320 320 319 318 316 315 315 315 315 316 316 316 317 315 313 314 314 313 313 312 312 312 312 311 311 312 312 312 312 312 312 312
310 311 312 313 313 314 314 315 316 316 317 317 317 316 317 317 317 317 318 318 318 319 319 319 319 317 316 316 315 316 316 315 315 314 314 314 314 314 313 313 313 313 313 312 312 312 312 312 312 313 312 312 312 312
Wind_Speed
16 17 16 16 16 17 17 17 17 16 16 16 15 14 14 12 8 3 2 8 9 5 8 2 5 5 4 3 2 3 3 4 4 4 2 2 2 2 2 3 3 3 4 2 3 5 3 12 3 3 9 15 11 11
16 16 17 17 16 16 17 17 17 17 17 16 16 14 13 11 8 5 3 8 11 8 7 8 5 4 3 3 4 2 1 1 3 4 1 2 1 2 2 1 3 3 4 5 2 4 3 17 20 17 15 14 10 9
15 16 16 16 16 16 16 17 19 19 18 17 15 13 12 10 8 6 6 9 7 6 9 9 8 4 4 5 5 2 1 1 2 2 5 2 1 3 1 2 1 5 3 5 4 2 7 19 19 16 11 10 6 5
15 15 16 16 16 16 16 18 19 20 19 17 15 13 11 9 7 5 4 7 7 5 3 2 3 7 6 5 6 4 4 4 4 2 3 2 2 3 3 2 3 2 4 5 4 5 11 11 10 7 5 4 6 8
13 15 16 16 16 15 16 18 20 21 18 16 14 12 9 7 5 5 2 3 6 6 4 9 6 6 7 4 4 8 5 5 4 2 2 2 2 2 2 2 1 1 6 4 4 10 7 8 5 2 2 4 7 7
13 15 16 16 16 15 16 18 20 22 21 17 14 12 10 7 3 2 2 2 6 8 4 3 4 5 10 6 5 4 5 4 1 2 2 2 1 2 3 1 4 3 7 10 9 13 7 7 4 3 6 5 6 8
13 15 16 16 15 15 17 19 20 21 20 17 14 12 10 6 3 3 1 3 6 8 3 6 7 3 9 6 5 4 3 2 2 2 2 1 2 2 3 3 11 15 12 15 15 13 9 6 2 5 8 9 11 14
14 15 15 15 13 14 17 19 18 19 19 16 13 10 7 5 2 1 2 4 6 4 3 1 4 3 10 4 3 5 3 3 2 1 2 3 2 2 1 4 20 16 14 12 11 7 5 3 6 10 12 13 17 23
13 14 14 13 12 14 17 17 19 20 19 15 11 6 3 2 3 5 9 9 8 5 2 2 2 3 7 6 4 3 4 1 1 2 3 4 1 2 6 21 24 22 16 13 11 4 1 6 10 11 15 17 22 23
14 13 13 12 12 14 17 17 19 23 19 13 9 3 1 3 8 9 2 2 2 3 4 4 3 3 3 5 2 2 2 2 1 3 5 2 4 8 6 19 22 20 14 13 10 4 3 8 11 13 17 20 20 26
13 12 12 12 13 15 17 18 19 21 15 9 6 3 6 9 4 2 2 2 3 3 5 6 7 3 4 3 3 2 2 0 1 4 3 1 3 4 12 21 18 13 11 9 3 2 6 9 11 16 18 20 23 27
12 12 12 13 14 16 18 19 19 15 13 13 10 10 5 2 2 1 2 4 2 4 4 4 5 8 3 1 3 1 2 2 3 1 2 1 3 4 15 15 14 11 6 3 4 7 9 12 14 14 19 21 23 28
12 12 13 14 15 17 17 17 14 12 13 5 3 3 2 1 3 2 2 2 3 4 4 4 2 3 8 3 4 2 2 3 2 1 2 2 3 13 15 13 8 4 2 3 3 5 10 11 11 15 18 19 22 29
12 11 12 13 15 11 13 15 10 9 5 2 2 5 2 2 3 3 2 3 5 12 18 5 1 4 7 2 2 2 2 1 1 1 3 2 6 11 11 6 2 1 2 3 5 9 10 10 11 14 16 17 22 25
11 11 12 12 11 12 14 15 8 6 2 2 2 3 4 5 6 11 12 8 4 8 11 5 3 3 3 3 2 2 1 2 4 4 2 7 6 4 4 4 6 3 2 5 8 10 7 6 10 16 16 17 17 19
11 11 10 10 13 13 15 14 5 3 3 3 4 3 6 5 8 4 12 9 4 3 3 2 2 2 2 2 2 4 3 4 3 4 10 7 4 4 5 4 3 4 5 6 9 7 6 8 12 15 14 13 12 14
10 9 12 12 11 14 12 4 2 2 3 3 5 8 12 11 17 25 17 10 4 6 2 3 4 2 1 1 2 3 4 3 4 7 7 8 7 6 6 5 4 5 8 8 6 5 6 7 7 8 11 10 9 12
10 11 12 14 14 11 2 2 2 3 5 7 6 7 6 12 18 22 17 14 11 6 11 5 0 3 3 3 2 3 5 4 5 6 6 6 5 3 4 5 5 5 3 1 1 2 1 3 3 7 11 12 10 13
7 9 8 10 11 7 3 1 3 4 7 8 11 15 13 16 17 13 11 4 12 8 10 9 3 4 4 5 3 7 9 6 2 0 4 6 4 2 1 2 2 3 2 1 2 2 2 5 9 11 11 12 13 13
4 3 6 9 7 2 2 4 3 5 5 5 14 11 11 14 13 12 7 9 9 6 3 4 5 7 7 8 7 6 5 5 5 4 4 7 5 5 4 2 3 5 4 3 3 3 5 6 7 8 9 11 13 13
2 3 6 8 6 3 3 3 4 5 7 7 13 14 10 13 12 12 8 9 8 5 5 9 12 7 4 4 4 4 3 3 4 6 8 8 5 6 5 4 4 6 5 4 4 5 5 7 9 10 11 10 12 12
4 3 7 3 3 3 4 5 6 7 6 8 10 4 5 4 4 4 5 6 4 4 4 6 7 5 7 5 2 1 1 1 1 3 4 3 4 6 4 3 5 7 9 8 7 8 7 6 9 11 13 12 15 13
3 3 3 2 3 3 6 5 5 4 3 4 4 3 2 3 4 2 3 3 4 4 0 5 5 7 5 4 5 2 2 5 5 2 4 4 4 4 7 9 9 9 7 5 5 6 7 8 7 11 8 12 11 9
2 3 3 3 5 4 5 4 5 5 4 3 2 3 2 3 4 2 3 4 4 6 6 6 8 9 7 9 5 3 4 6 4 3 4 5 6 8 9 7 7 9 6 4 7 9 11 13 8 9 11 10 10 9
2 4 3 4 5 4 4 4 5 3 3 3 2 3 3 3 1 2 2 3 7 12 11 9 10 10 9 6 4 5 6 5 5 4 3 4 3 4 5 8 8 5 5 8 7 2 2 1 5 8 6 5 13 14
4 6 7 5 4 5 4 3 4 4 2 2 3 2 3 2 2 4 3 6 4 13 13 13 10 10 10 11 11 6 4 6 6 8 4 6 6 9 10 13 12 11 6 3 3 3 1 2 1 1 2 5 8 14
4 5 9 8 6 6 7 9 8 3 3 3 2 3 2 3 3 4 3 6 4 8 10 13 12 10 10 7 8 7 6 7 7 6 6 6 6 6 5 5 4 6 7 6 6 7 6 3 4 1 2 7 8 11
8 5 5 6 7 8 4 4 3 3 3 4 5 2 1 2 3 2 2 6 2 7 12 13 13 12 13 9 12 14 11 9 3 7 7 10 7 6 9 3 1 6 6 3 1 3 2 4 3 5 4 6 11 13
7 7 5 9 8 7 8 9 6 5 3 6 6 4 5 7 7 6 2 2 2 8 13 14 14 13 11 11 10 10 13 13 16 9 7 9 10 10 12 11 7 6 7 5 3 2 1 0 3 5 7 8 6 7
8 13 6 6 5 6 9 11 7 11 16 14 14 14 16 22 25 23 18 17 17 16 15 12 14 14 14 10 9 9 8 8 9 14 17 9 10 10 11 12 14 12 8 6 5 5 8 10 10 12 14 14 13 13
5 8 7 8 6 14 22 21 23 25 24 23 20 22 24 23 20 20 16 13 15 17 17 17 16 17 16 14 15 15 16 14 14 13 15 14 9 11 10 12 13 11 8 7 7 6 6 7 8 8 8 6 5 6
9 11 5 3 6 16 15 20 23 23 25 24 23 21 20 17 18 27 23 16 16 23 21 17 17 18 17 17 16 18 16 17 11 10 10 7 7 11 10 11 13 13 12 11 11 12 12 12 9 10 5 6 5 6
18 14 14 12 9 6 7 6 5 5 11 18 23 25 26 23 18 26 21 19 22 23 22 22 17 12 14 15 13 13 9 11 12 10 8 8 9 10 8 8 14 11 13 15 16 9 8 9 7 8 5 5 5 5
Wind_Direction
346 347 348 351 353 352 352 352 351 352 353 353 353 352 350 352 356 1 340 340 352 300 283 298 9 11 342 3 120 344 56 347 48 69 128 224 188 272 51 342 110 133 121 126 92 94 198 348 355 154 146 129 115 86
346 346 347 348 349 352 352 350 348 348 348 347 347 345 345 344 348 347 280 322 313 267 265 277 279 295 252 325 347 353 184 168 157 93 161 124 323 21 148 218 354 39 173 142 125 152 291 68 98 110 119 108 87 73
346 347 345 345 346 349 351 349 347 344 343 342 341 339 339 337 341 341 327 329 335 301 288 265 267 221 197 249 266 302 281 153 153 123 149 151 102 125 124 266 101 1 124 107 86 358 79 97 98 97 92 88 73 28
346 349 347 345 347 348 350 350 349 345 341 340 338 335 335 333 329 324 329 356 0 324 313 266 144 173 221 258 267 257 177 158 156 148 103 126 156 181 205 192 119 221 53 119 70 140 104 96 97 92 69 13 335 325
342 346 345 342 343 345 350 353 352 350 345 340 337 333 330 330 321 316 229 342 13 8 293 294 267 229 219 251 252 232 210 188 180 139 89 220 203 117 20 70 7 307 158 138 198 178 141 159 152 131 357 336 329 308
331 338 340 339 338 339 342 343 346 350 349 344 340 334 329 328 309 206 257 285 345 339 298 310 279 239 218 225 232 210 189 196 177 163 187 193 122 132 100 146 267 178 149 127 154 160 148 151 147 354 337 335 302 300
325 331 335 336 334 337 338 339 341 343 345 342 335 329 323 320 295 231 232 309 320 327 281 305 309 219 193 193 205 222 213 201 183 164 219 171 124 85 105 161 190 156 146 132 138 148 148 172 221 303 312 301 298 305
323 327 331 334 335 339 343 345 348 347 343 341 337 331 323 323 330 277 292 295 316 309 267 273 276 307 192 193 204 210 204 199 211 189 178 183 138 77 225 234 173 162 154 155 153 143 100 17 304 301 305 308 311 317
320 325 328 332 333 342 347 352 351 346 341 338 337 329 333 9 354 331 307 297 291 257 266 231 232 240 186 193 197 185 208 96 240 190 234 140 0 223 217 171 176 178 178 172 160 157 338 313 306 308 311 316 317 321
317 322 326 326 326 332 340 341 343 347 340 334 324 312 253 324 315 313 299 260 247 227 235 240 249 265 211 186 179 147 187 162 166 249 138 137 236 236 218 198 192 187 181 167 162 151 303 312 306 309 313 317 319 321
313 317 322 324 323 325 327 332 335 339 349 356 341 301 303 315 306 274 275 209 204 260 223 241 234 246 213 141 198 195 164 108 75 268 145 224 278 281 208 181 180 172 168 161 142 23 344 323 316 316 319 323 322 322
307 312 317 320 322 322 323 327 326 330 341 328 311 304 320 322 288 341 259 288 197 240 222 209 240 215 273 191 113 160 124 54 232 223 102 249 270 339 163 155 141 138 135 96 10 342 334 331 325 320 322 327 328 324
297 306 312 319 320 321 325 329 325 322 330 334 329 303 298 286 25 229 291 299 295 294 348 270 232 85 353 335 69 76 90 235 317 41 235 231 339 129 135 131 118 107 356 342 322 321 328 324 325 325 327 330 323 324
295 304 312 319 318 321 331 341 332 333 330 309 317 318 174 268 249 218 257 256 301 329 329 327 217 175 195 110 130 109 233 71 7 267 231 191 146 131 141 145 185 242 279 320 319 321 320 327 339 346 337 329 332 337
291 302 311 318 316 312 317 330 319 323 286 280 284 251 236 258 297 311 328 314 8 355 16 354 31 318 6 95 32 84 147 240 202 227 223 177 173 194 209 269 264 245 288 309 318 317 320 338 339 347 343 342 348 359
288 304 309 307 314 324 318 321 292 267 254 248 233 263 276 309 316 306 321 302 332 284 15 263 310 31 336 122 139 220 164 218 229 209 185 182 225 231 262 251 241 281 289 293 303 301 319 330 333 338 339 346 357 8
287 297 306 322 327 326 321 317 223 244 251 243 250 256 268 283 264 282 288 290 210 167 97 8 352 250 128 76 265 188 206 224 191 190 221 258 257 233 254 251 238 285 295 291 293 308 317 323 339 346 353 350 349 18
286 305 315 321 327 335 328 308 278 261 254 251 254 270 279 281 286 299 308 317 195 175 149 170 323 286 238 202 235 238 245 260 245 261 263 227 257 227 203 226 279 290 276 275 345 6 46 67 11 4 359 352 346 351
287 309 317 321 332 337 325 278 256 268 259 276 271 279 284 293 298 305 313 263 217 204 155 161 176 215 236 229 251 287 272 253 210 141 236 212 203 202 243 308 225 233 218 269 217 202 260 306 316 319 330 341 354 353
287 316 335 335 327 311 295 271 248 269 272 292 291 283 293 290 292 299 243 194 176 171 173 201 218 216 218 265 271 244 218 207 205 194 175 188 191 195 201 269 238 206 235 281 262 256 290 296 311 325 326 318 338 346
229 296 336 346 338 297 250 272 255 255 287 268 277 293 281 274 265 264 243 213 211 225 236 237 253 253 246 236 233 217 246 281 246 227 203 206 222 242 264 247 245 224 238 282 269 276 272 307 322 312 316 331 321 324
227 281 312 327 299 278 270 250 260 284 273 273 296 249 275 288 278 254 208 200 238 246 239 270 273 255 180 192 219 256 259 350 317 217 190 191 211 248 247 282 264 261 263 274 272 294 293 331 316 314 318 321 320 312
248 292 275 259 266 252 267 247 254 251 253 266 278 280 281 292 320 247 265 237 256 252 299 134 152 168 176 190 170 165 313 335 349 230 243 256 248 243 245 265 278 266 272 260 306 313 328 322 324 336 356 346 335 325
238 255 242 242 218 261 270 246 237 259 267 268 273 289 320 320 325 253 258 245 210 168 154 158 161 164 187 201 205 247 290 313 337 3 270 259 304 266 261 281 284 269 252 272 295 299 290 284 299 296 304 331 330 341
240 233 211 253 229 242 245 241 220 219 246 228 263 283 301 320 330 276 247 277 190 174 165 165 185 198 212 218 240 245 253 265 279 290 326 320 306 296 265 279 281 253 257 268 299 343 21 205 269 270 300 346 358 344
238 217 203 225 221 210 227 259 218 220 211 224 240 253 331 347 307 257 245 342 211 189 188 191 199 217 238 248 262 271 252 255 260 266 275 283 271 257 266 277 290 258 259 231 216 227 296 282 57 194 235 331 340 7
245 245 219 235 252 284 266 263 266 238 247 220 202 154 187 238 251 258 262 330 314 212 209 205 204 222 242 256 250 234 245 281 300 308 270 270 268 258 263 339 0 229 229 239 262 289 265 208 171 195 300 342 345 323
235 250 208 230 235 250 259 287 275 242 229 187 147 184 240 255 253 285 278 294 264 204 209 206 215 237 260 301 276 265 254 256 231 340 303 260 262 237 201 173 67 120 125 130 18 26 77 179 222 300 309 305 326 328
232 228 236 254 250 245 221 208 230 258 246 181 174 217 233 234 252 296 275 226 241 215 217 223 230 241 254 288 286 257 253 251 222 227 271 273 266 256 235 229 233 188 164 166 175 142 90 10 273 289 298 311 338 327
245 229 224 233 209 219 225 230 232 290 309 295 273 271 278 285 291 293 287 276 254 243 236 225 217 224 237 251 253 235 274 292 248 247 255 263 286 276 249 241 239 240 231 233 243 266 277 287 296 296 295 287 282 281
239 191 213 234 255 247 248 254 268 280 283 286 283 274 283 287 292 294 292 281 248 228 230 225 228 232 237 241 249 254 256 277 277 263 263 275 256 240 235 223 220 220 227 228 214 232 260 291 306 301 291 291 322 332
210 211 214 242 260 263 268 269 279 277 277 276 278 280 281 281 277 288 291 289 255 224 217 228 238 242 246 243 245 267 273 271 260 247 241 247 259 242 244 226 217 218 231 249 260 275 295 299 281 261 265 319 330 340
210 225 231 254 265 266 265 236 259 260 266 267 268 266 266 266 265 280 288 282 284 265 245 229 233 235 230 233 258 233 227 227 217 218 223 238 249 235 265 259 216 233 240 250 267 237 269 290 260 231 255 316 353 331